This is the latest recevied weather packets stored in our database for station/object KA9CBS. If no packets are shown the sender has not sent any weather packets the latest 10 day(s).
| Time | Temp. | Humidity | Pressure | Rain* | Wind** | Luminosity | Snow |
|---|---|---|---|---|---|---|---|
| 1777633558 | 8.89° C | 81% | 1018 hPa | 0 mm | - | 4 W/m² | - |
| 1777633255 | 9.44° C | 79% | 1018 hPa | 0 mm | - | 1 W/m² | - |
| 1777632953 | 9.44° C | 79% | 1017.7 hPa | 0 mm | - | 0 W/m² | - |
| 1777632649 | 9.44° C | 77% | 1017.8 hPa | 0 mm | - | 0 W/m² | - |
| 1777632346 | 9.44° C | 81% | 1017.7 hPa | 0 mm | - | 0 W/m² | - |
| 1777632043 | 9.44° C | 82% | 1017.4 hPa | 0 mm | - | 0 W/m² | - |
| 1777631741 | 10° C | 81% | 1017.5 hPa | 0 mm | - | 0 W/m² | - |
| 1777631438 | 10° C | 83% | 1017.5 hPa | 0 mm | - | 0 W/m² | - |
| 1777631135 | 10° C | 84% | 1017.3 hPa | 0 mm | - | 0 W/m² | - |
| 1777630832 | 10° C | 85% | 1017.2 hPa | 0 mm | - | 0 W/m² | - |
| 1777630528 | 10° C | 86% | 1017.1 hPa | 0 mm | - | 0 W/m² | - |
| 1777630224 | 10.56° C | 86% | 1017.3 hPa | 0 mm | - | 0 W/m² | - |
| 1777629923 | 10.56° C | 85% | 1017.3 hPa | 0 mm | - | 0 W/m² | - |
| 1777629621 | 10.56° C | 87% | 1017.2 hPa | 0 mm | - | 0 W/m² | - |
| 1777629316 | 10.56° C | 89% | 1017.3 hPa | 0 mm | - | 0 W/m² | - |
| 1777629012 | 10.56° C | 89% | 1017.1 hPa | 0 mm | - | 0 W/m² | - |
| 1777628709 | 10.56° C | 89% | 1016.8 hPa | 0 mm | - | 0 W/m² | - |
| 1777628405 | 10.56° C | 88% | 1017.3 hPa | 0 mm | - | 0 W/m² | - |
| 1777628101 | 10.56° C | 88% | 1016.9 hPa | 0 mm | - | 0 W/m² | - |
| 1777627796 | 10.56° C | 91% | 1017 hPa | 0 mm | - | 0 W/m² | - |
| 1777627489 | 10.56° C | 91% | 1017.2 hPa | 0 mm | - | 0 W/m² | - |
| 1777627185 | 10.56° C | 92% | 1017 hPa | 0 mm | - | 0 W/m² | - |
| 1777626883 | 10.56° C | 93% | 1017.1 hPa | 0 mm | - | 0 W/m² | - |
| 1777626579 | 10.56° C | 94% | 1017.1 hPa | 0 mm | - | 0 W/m² | - |
| 1777626274 | 10.56° C | 94% | 1016.9 hPa | 0 mm | - | 0 W/m² | - |
* Rain latest hour (hover to see other rain measurements)
** Current wind speed in m/s (hover to see current wind gust speed)